AAY1602 KSNA-KPVU

Flight info

Callsign AAY1602
Flight time 1h 12m
Altitude 35000
Route FINZZ3 BEALE Q842 WINEN JAMMN
Aircraft A320/M-SDFGHIRWYZ/SB1

Departure

Time 2026-04-22 02:36
Airport John Wayne Orange County International Airport (KSNA)

Arrival

Time 2026-04-22 03:48
Airport Provo Municipal Airport (KPVU)
Time Latitude Longitude Altitude Speed Heading
2026-04-22 02:00 33.67571 -117.86463 55 ft 0 kts 118°
2026-04-22 02:26 33.67576 -117.86473 55 ft 4 kts 118°
2026-04-22 02:26 33.67588 -117.86501 48 ft 4 kts 110°
2026-04-22 02:27 33.67592 -117.86529 47 ft 4 kts 60°
2026-04-22 02:27 33.67587 -117.86537 51 ft 0 kts 28°
2026-04-22 02:31 33.67588 -117.86536 51 ft 0 kts 27°
2026-04-22 02:32 33.67629 -117.86511 55 ft 13 kts 27°
2026-04-22 02:32 33.67704 -117.86464 53 ft 12 kts 27°
2026-04-22 02:32 33.67772 -117.86420 52 ft 11 kts 28°
2026-04-22 02:33 33.67834 -117.86381 53 ft 9 kts 28°
2026-04-22 02:33 33.67891 -117.86345 55 ft 9 kts 28°
2026-04-22 02:33 33.67948 -117.86309 53 ft 10 kts 28°
2026-04-22 02:33 33.68006 -117.86273 53 ft 9 kts 25°
2026-04-22 02:34 33.68065 -117.86306 55 ft 11 kts 298°
2026-04-22 02:34 33.68101 -117.86388 53 ft 11 kts 298°
2026-04-22 02:34 33.68141 -117.86478 55 ft 13 kts 298°
2026-04-22 02:34 33.68129 -117.86534 55 ft 0 kts 205°
2026-04-22 02:35 33.68063 -117.86574 55 ft 45 kts 207°
2026-04-22 02:35 33.67526 -117.86914 53 ft 126 kts 207°
2026-04-22 02:35 33.66632 -117.87479 524 ft 150 kts 208°
2026-04-22 02:36 33.65698 -117.88053 1419 ft 152 kts 210°
2026-04-22 02:36 33.64716 -117.88651 2075 ft 168 kts 211°
2026-04-22 02:36 33.63536 -117.89151 2529 ft 194 kts 191°
2026-04-22 02:36 33.62108 -117.89335 2826 ft 219 kts 189°
2026-04-22 02:37 33.60506 -117.89535 3234 ft 244 kts 188°
2026-04-22 02:37 33.58751 -117.89757 3803 ft 260 kts 189°
2026-04-22 02:37 33.57006 -117.90303 4631 ft 262 kts 211°
2026-04-22 02:37 33.55614 -117.91677 5559 ft 259 kts 225°
2026-04-22 02:38 33.54310 -117.93164 6579 ft 258 kts 224°
2026-04-22 02:38 33.53020 -117.94614 7460 ft 259 kts 224°
2026-04-22 02:38 33.51702 -117.96095 7853 ft 259 kts 224°
2026-04-22 02:38 33.50415 -117.97569 7979 ft 258 kts 229°
2026-04-22 02:39 33.49564 -117.99448 8006 ft 257 kts 256°
2026-04-22 02:39 33.49631 -118.01591 8099 ft 268 kts 285°
2026-04-22 02:39 33.50661 -118.03504 8922 ft 279 kts 307°
2026-04-22 02:39 33.51974 -118.05224 9862 ft 280 kts 307°
2026-04-22 02:40 33.53324 -118.06963 10429 ft 295 kts 307°
2026-04-22 02:40 33.54830 -118.08776 10657 ft 322 kts 315°
2026-04-22 02:40 33.56827 -118.10246 10867 ft 354 kts 332°
2026-04-22 02:40 33.59276 -118.11008 11332 ft 374 kts 349°
2026-04-22 02:41 33.61917 -118.10865 12008 ft 389 kts
2026-04-22 02:41 33.64503 -118.09757 12672 ft 401 kts 21°
2026-04-22 02:41 33.67034 -118.08298 13340 ft 406 kts 21°
2026-04-22 02:41 33.69588 -118.06808 13991 ft 411 kts 21°
2026-04-22 02:42 33.72170 -118.05290 14541 ft 416 kts 21°
2026-04-22 02:42 33.74785 -118.03754 15110 ft 420 kts 21°
2026-04-22 02:42 33.77421 -118.02207 15661 ft 424 kts 21°
2026-04-22 02:42 33.80087 -118.00645 16250 ft 427 kts 21°
2026-04-22 02:43 33.82769 -117.99080 16847 ft 431 kts 21°
2026-04-22 02:43 33.85474 -117.97501 17414 ft 434 kts 21°
2026-04-22 02:43 33.88203 -117.95907 17986 ft 438 kts 20°
2026-04-22 02:43 33.90903 -117.94151 18494 ft 446 kts 28°
2026-04-22 02:44 33.93433 -117.91934 18964 ft 452 kts 33°
2026-04-22 02:44 33.95943 -117.89630 19455 ft 455 kts 33°
2026-04-22 02:44 33.98477 -117.87311 19926 ft 459 kts 32°
2026-04-22 02:44 34.01028 -117.84982 20392 ft 462 kts 32°
2026-04-22 02:45 34.03597 -117.82639 20849 ft 465 kts 32°
2026-04-22 02:45 34.06179 -117.80280 21290 ft 468 kts 32°
2026-04-22 02:45 34.08703 -117.77767 21727 ft 474 kts 39°
2026-04-22 02:45 34.10945 -117.74803 22160 ft 482 kts 48°
2026-04-22 02:46 34.13052 -117.71649 22594 ft 485 kts 48°
2026-04-22 02:46 34.15180 -117.68474 23011 ft 488 kts 47°
2026-04-22 02:46 34.17325 -117.65287 23431 ft 491 kts 47°
2026-04-22 02:46 34.19488 -117.62086 23809 ft 493 kts 47°
2026-04-22 02:47 34.21665 -117.58867 24127 ft 497 kts 47°
2026-04-22 02:47 34.23856 -117.55621 24432 ft 499 kts 47°
2026-04-22 02:47 34.26053 -117.52355 24751 ft 502 kts 47°
2026-04-22 02:47 34.28258 -117.49068 25046 ft 505 kts 48°
2026-04-22 02:48 34.30468 -117.45761 25334 ft 507 kts 48°
2026-04-22 02:48 34.32687 -117.42439 25680 ft 509 kts 48°
2026-04-22 02:48 34.34920 -117.39100 26002 ft 511 kts 48°
2026-04-22 02:48 34.37163 -117.35749 26299 ft 514 kts 48°
2026-04-22 02:49 34.39417 -117.32379 26589 ft 516 kts 48°
2026-04-22 02:49 34.41647 -117.29034 26853 ft 518 kts 49°
2026-04-22 02:49 34.43915 -117.25627 27138 ft 521 kts 49°
2026-04-22 02:49 34.46191 -117.22203 27448 ft 523 kts 49°
2026-04-22 02:50 34.48479 -117.18766 27728 ft 525 kts 49°
2026-04-22 02:50 34.50773 -117.15311 27943 ft 527 kts 49°
2026-04-22 02:50 34.53075 -117.11840 28234 ft 529 kts 49°
2026-04-22 02:50 34.55382 -117.08365 28595 ft 529 kts 49°
2026-04-22 02:51 34.57714 -117.04914 28973 ft 529 kts 48°
2026-04-22 02:51 34.60069 -117.01484 29357 ft 529 kts 47°
2026-04-22 02:51 34.62432 -116.98073 29795 ft 527 kts 47°
2026-04-22 02:51 34.64799 -116.94665 30167 ft 528 kts 47°
2026-04-22 02:52 34.67161 -116.91258 30477 ft 527 kts 47°
2026-04-22 02:52 34.69515 -116.87843 30800 ft 527 kts 48°
2026-04-22 02:52 34.71861 -116.84418 31108 ft 527 kts 49°
2026-04-22 02:52 34.74198 -116.80987 31433 ft 527 kts 49°
2026-04-22 02:53 34.76531 -116.77555 31752 ft 526 kts 49°
2026-04-22 02:53 34.78862 -116.74123 32057 ft 526 kts 49°
2026-04-22 02:53 34.81193 -116.70693 32393 ft 525 kts 49°
2026-04-22 02:53 34.83526 -116.67260 32710 ft 525 kts 49°
2026-04-22 02:54 34.85855 -116.63839 33022 ft 525 kts 48°
2026-04-22 02:54 34.88234 -116.60475 33326 ft 524 kts 46°
2026-04-22 02:54 34.89846 -116.58287 33571 ft 524 kts 45°
2026-04-22 02:54 34.92318 -116.55026 33930 ft 523 kts 45°
2026-04-22 02:55 34.94812 -116.51791 34156 ft 524 kts 44°
2026-04-22 02:55 34.97314 -116.48547 34402 ft 525 kts 45°
2026-04-22 02:55 34.99797 -116.45290 34665 ft 525 kts 45°
2026-04-22 02:55 35.02267 -116.42005 34897 ft 525 kts 45°
2026-04-22 02:56 35.04726 -116.38701 34961 ft 527 kts 46°
2026-04-22 02:56 35.09646 -116.32039 34958 ft 529 kts 46°
2026-04-22 02:57 35.14576 -116.25365 34973 ft 529 kts 46°
2026-04-22 02:57 35.19557 -116.18659 34963 ft 535 kts 46°
2026-04-22 02:58 35.24568 -116.11902 34972 ft 536 kts 46°
2026-04-22 02:58 35.29563 -116.05132 34958 ft 535 kts 46°
2026-04-22 02:59 35.34511 -115.98397 34961 ft 536 kts 46°
2026-04-22 02:59 35.39490 -115.91615 34941 ft 534 kts 47°
2026-04-22 03:00 35.44461 -115.84851 34973 ft 534 kts 47°
2026-04-22 03:00 35.49420 -115.78084 34976 ft 533 kts 47°
2026-04-22 03:01 35.54367 -115.71318 34968 ft 532 kts 47°
2026-04-22 03:01 35.59301 -115.64550 34966 ft 532 kts 47°
2026-04-22 03:02 35.64231 -115.57778 34930 ft 532 kts 47°
2026-04-22 03:02 35.69156 -115.50983 34917 ft 532 kts 47°
2026-04-22 03:03 35.74086 -115.44175 34919 ft 533 kts 47°
2026-04-22 03:03 35.79014 -115.37361 34905 ft 533 kts 47°
2026-04-22 03:04 35.83942 -115.30543 34891 ft 533 kts 47°
2026-04-22 03:04 35.88864 -115.23716 34947 ft 533 kts 47°
2026-04-22 03:05 35.93754 -115.16926 34958 ft 533 kts 47°
2026-04-22 03:05 35.98664 -115.10074 34957 ft 533 kts 47°
2026-04-22 03:06 36.03562 -115.03216 34922 ft 533 kts 47°
2026-04-22 03:06 36.08465 -114.96350 34873 ft 533 kts 48°
2026-04-22 03:07 36.13362 -114.89479 34821 ft 533 kts 48°
2026-04-22 03:07 36.18592 -114.82997 34811 ft 531 kts 35°
2026-04-22 03:08 36.24838 -114.78260 34827 ft 525 kts 24°
2026-04-22 03:08 36.31290 -114.74003 34795 ft 525 kts 24°
2026-04-22 03:09 36.37730 -114.69723 34761 ft 525 kts 24°
2026-04-22 03:09 36.44132 -114.65463 34736 ft 525 kts 24°
2026-04-22 03:10 36.50575 -114.61170 34756 ft 526 kts 25°
2026-04-22 03:10 36.57011 -114.56871 34748 ft 525 kts 25°
2026-04-22 03:11 36.63451 -114.52568 34735 ft 525 kts 25°
2026-04-22 03:11 36.69886 -114.48249 34732 ft 525 kts 25°
2026-04-22 03:12 36.76226 -114.43695 34746 ft 528 kts 28°
2026-04-22 03:12 36.85494 -114.36223 34709 ft 529 kts 31°
2026-04-22 03:13 36.91680 -114.31244 34712 ft 529 kts 30°
2026-04-22 03:13 36.97909 -114.26354 34717 ft 529 kts 29°
2026-04-22 03:14 37.04110 -114.21506 34748 ft 529 kts 30°
2026-04-22 03:14 37.10331 -114.16601 34743 ft 528 kts 30°
2026-04-22 03:15 37.16538 -114.11671 34754 ft 528 kts 30°
2026-04-22 03:15 37.22738 -114.06735 34725 ft 528 kts 30°
2026-04-22 03:16 37.28941 -114.01806 34756 ft 528 kts 30°
2026-04-22 03:16 37.35148 -113.96870 34759 ft 528 kts 30°
2026-04-22 03:17 37.41343 -113.91916 34755 ft 528 kts 30°
2026-04-22 03:17 37.47538 -113.86963 34760 ft 527 kts 30°
2026-04-22 03:18 37.53722 -113.82001 34763 ft 527 kts 31°
2026-04-22 03:18 37.59901 -113.77029 34772 ft 526 kts 31°
2026-04-22 03:19 37.66078 -113.72061 34739 ft 526 kts 31°
2026-04-22 03:19 37.72246 -113.67081 34750 ft 526 kts 31°
2026-04-22 03:20 37.78414 -113.62095 34756 ft 526 kts 31°
2026-04-22 03:20 37.84546 -113.57140 34785 ft 527 kts 31°
2026-04-22 03:21 37.90721 -113.52136 34775 ft 527 kts 32°
2026-04-22 03:21 37.97164 -113.47797 34771 ft 524 kts 22°
2026-04-22 03:22 38.03822 -113.44005 34760 ft 524 kts 22°
2026-04-22 03:22 38.10476 -113.40219 34743 ft 523 kts 22°
2026-04-22 03:23 38.17103 -113.36419 34763 ft 522 kts 22°
2026-04-22 03:23 38.23710 -113.32615 34792 ft 521 kts 22°
2026-04-22 03:24 38.30307 -113.28811 34816 ft 520 kts 22°
2026-04-22 03:24 38.36900 -113.25015 34838 ft 520 kts 22°
2026-04-22 03:25 38.43446 -113.21240 34858 ft 520 kts 22°
2026-04-22 03:25 38.50031 -113.17432 34860 ft 520 kts 22°
2026-04-22 03:26 38.56612 -113.13615 34882 ft 519 kts 23°
2026-04-22 03:26 38.63190 -113.09787 34803 ft 519 kts 23°
2026-04-22 03:27 38.69767 -113.05957 34744 ft 519 kts 23°
2026-04-22 03:27 38.76338 -113.02115 34742 ft 519 kts 23°
2026-04-22 03:28 38.82906 -112.98268 34770 ft 519 kts 24°
2026-04-22 03:28 38.89481 -112.94417 34730 ft 520 kts 24°
2026-04-22 03:29 38.92773 -112.92485 34498 ft 520 kts 24°
2026-04-22 03:29 38.96064 -112.90548 34257 ft 520 kts 24°
2026-04-22 03:29 38.99357 -112.88608 34022 ft 521 kts 24°
2026-04-22 03:29 39.02650 -112.86670 33788 ft 521 kts 24°
2026-04-22 03:30 39.05945 -112.84732 33532 ft 521 kts 24°
2026-04-22 03:30 39.09242 -112.82792 32653 ft 525 kts 24°
2026-04-22 03:30 39.12602 -112.80814 31365 ft 535 kts 24°
2026-04-22 03:30 39.16003 -112.78809 30339 ft 540 kts 24°
2026-04-22 03:31 39.19424 -112.76785 29177 ft 543 kts 24°
2026-04-22 03:31 39.22856 -112.74750 28145 ft 543 kts 24°
2026-04-22 03:31 39.26283 -112.72714 27038 ft 543 kts 24°
2026-04-22 03:31 39.29723 -112.70667 25913 ft 545 kts 25°
2026-04-22 03:32 39.33160 -112.68621 24990 ft 542 kts 25°
2026-04-22 03:32 39.36580 -112.66583 24014 ft 541 kts 25°
2026-04-22 03:32 39.39941 -112.64579 23250 ft 537 kts 25°
2026-04-22 03:32 39.43318 -112.62567 22341 ft 532 kts 25°
2026-04-22 03:33 39.46655 -112.60571 21509 ft 525 kts 25°
2026-04-22 03:33 39.49952 -112.58596 20721 ft 519 kts 25°
2026-04-22 03:33 39.53213 -112.56644 19969 ft 513 kts 25°
2026-04-22 03:33 39.56440 -112.54715 19248 ft 507 kts 25°
2026-04-22 03:34 39.59625 -112.52810 18546 ft 502 kts 25°
2026-04-22 03:34 39.62783 -112.50920 17823 ft 497 kts 25°
2026-04-22 03:34 39.65863 -112.49004 17398 ft 483 kts 27°
2026-04-22 03:34 39.68791 -112.47037 17262 ft 465 kts 30°
2026-04-22 03:35 39.71575 -112.45059 17116 ft 448 kts 31°
2026-04-22 03:35 39.74245 -112.43105 16984 ft 432 kts 31°
2026-04-22 03:35 39.76816 -112.41214 16864 ft 419 kts 31°
2026-04-22 03:35 39.79322 -112.39391 16733 ft 406 kts 31°
2026-04-22 03:36 39.81761 -112.37642 16603 ft 394 kts 31°
2026-04-22 03:36 39.84136 -112.35958 16475 ft 384 kts 31°
2026-04-22 03:36 39.86451 -112.34324 16348 ft 374 kts 31°
2026-04-22 03:36 39.88728 -112.32721 16041 ft 371 kts 31°
2026-04-22 03:37 39.90991 -112.31125 15661 ft 369 kts 31°
2026-04-22 03:37 39.93250 -112.29524 15252 ft 370 kts 31°
2026-04-22 03:37 39.95505 -112.27922 14885 ft 369 kts 31°
2026-04-22 03:37 39.97721 -112.26348 14527 ft 367 kts 32°
2026-04-22 03:38 39.99956 -112.24760 14173 ft 365 kts 32°
2026-04-22 03:38 40.02180 -112.23180 13817 ft 363 kts 32°
2026-04-22 03:38 40.04387 -112.21613 13459 ft 360 kts 32°
2026-04-22 03:38 40.06584 -112.20050 13076 ft 358 kts 32°
2026-04-22 03:39 40.08771 -112.18494 12686 ft 358 kts 32°
2026-04-22 03:39 40.10948 -112.16940 12301 ft 356 kts 32°
2026-04-22 03:39 40.13120 -112.15388 11930 ft 355 kts 32°
2026-04-22 03:39 40.15276 -112.13845 11566 ft 353 kts 31°
2026-04-22 03:40 40.17424 -112.12309 11182 ft 351 kts 30°
2026-04-22 03:40 40.19570 -112.10807 10910 ft 346 kts 26°
2026-04-22 03:40 40.21775 -112.09708 10792 ft 335 kts 18°
2026-04-22 03:40 40.23980 -112.08759 10519 ft 332 kts 18°
2026-04-22 03:41 40.26170 -112.07818 10288 ft 332 kts 18°
2026-04-22 03:41 40.28366 -112.06874 10055 ft 332 kts 18°
2026-04-22 03:41 40.30559 -112.05929 9825 ft 331 kts 18°
2026-04-22 03:41 40.32746 -112.04984 9592 ft 331 kts 18°
2026-04-22 03:42 40.34884 -112.03899 9339 ft 329 kts 30°
2026-04-22 03:42 40.36672 -112.02082 9119 ft 324 kts 51°
2026-04-22 03:42 40.37898 -111.99663 8896 ft 314 kts 71°
2026-04-22 03:42 40.38471 -111.96989 8671 ft 295 kts 90°
2026-04-22 03:43 40.38596 -111.94400 8468 ft 276 kts 94°
2026-04-22 03:43 40.38699 -111.91958 8291 ft 261 kts 94°
2026-04-22 03:43 40.38643 -111.89677 8136 ft 239 kts 109°
2026-04-22 03:43 40.38145 -111.87722 7963 ft 214 kts 126°
2026-04-22 03:44 40.37344 -111.86194 7739 ft 196 kts 140°
2026-04-22 03:44 40.36334 -111.85086 7516 ft 185 kts 153°
2026-04-22 03:44 40.35289 -111.84155 7296 ft 178 kts 154°
2026-04-22 03:44 40.34297 -111.83268 7070 ft 168 kts 153°
2026-04-22 03:45 40.33395 -111.82462 6903 ft 152 kts 155°
2026-04-22 03:45 40.32531 -111.81695 6728 ft 148 kts 154°
2026-04-22 03:45 40.31682 -111.80941 6573 ft 147 kts 153°
2026-04-22 03:45 40.30834 -111.80188 6408 ft 147 kts 152°
2026-04-22 03:46 40.29987 -111.79435 6234 ft 147 kts 152°
2026-04-22 03:46 40.29138 -111.78680 5967 ft 148 kts 149°
2026-04-22 03:46 40.28283 -111.77920 5774 ft 150 kts 148°
2026-04-22 03:46 40.27416 -111.77150 5583 ft 151 kts 150°
2026-04-22 03:47 40.26557 -111.76386 5378 ft 148 kts 149°
2026-04-22 03:47 40.25708 -111.75632 5186 ft 148 kts 152°
2026-04-22 03:47 40.24863 -111.74881 4993 ft 145 kts 150°
2026-04-22 03:47 40.24039 -111.74148 4796 ft 142 kts 151°
2026-04-22 03:48 40.23215 -111.73414 4579 ft 142 kts 153°
2026-04-22 03:48 40.22440 -111.72734 4506 ft 114 kts 145°
2026-04-22 03:48 40.21927 -111.72277 4499 ft 64 kts 146°
2026-04-22 03:48 40.21616 -111.72001 4502 ft 48 kts 147°
2026-04-22 03:49 40.21364 -111.71775 4502 ft 37 kts 145°
2026-04-22 03:49 40.21237 -111.71663 4501 ft 30 kts 146°
2026-04-22 03:49 40.21106 -111.71545 4500 ft 16 kts 142°
2026-04-22 03:49 40.21120 -111.71432 4498 ft 14 kts 53°
2026-04-22 03:50 40.21181 -111.71396 4502 ft 9 kts 330°
2026-04-22 03:50 40.21240 -111.71398 4499 ft 11 kts 47°
2026-04-22 03:50 40.21284 -111.71339 4500 ft 7 kts
2026-04-22 03:50 40.21330 -111.71373 4502 ft 6 kts 332°
2026-04-22 03:51 40.21352 -111.71363 4501 ft 5 kts 38°
2026-04-22 03:51 40.21365 -111.71341 4499 ft 2 kts 47°
2026-04-22 03:51 40.21369 -111.71333 4501 ft 1 kts 57°
2026-04-22 03:51 40.21370 -111.71332 4500 ft 0 kts 57°
2026-04-22 03:58 40.21370 -111.71333 4499 ft 0 kts 56°